Location: Buoux
(43.8303°N, 5.3776°E)
Time: 10:16:46
(UTC+00:00)

Daily predictions for brighter satellites

Satellite Brightness Start Highest point End
(mag) Time Altitude Azimuth Time Altitude Azimuth Time Altitude Azimuth
Cosmos 2219 Rocket 3.7 18:21:59 10° SW 18:27:20 42° WNW 18:32:42 10° NNE
KORONAS-FOTON 3.8 18:28:14 10° N 18:32:02 57° E 18:35:45 10° SSE
STARLINK-1246 3.7 18:28:58 10° SW 18:32:56 56° SE 18:36:55 10° ENE
STARLINK-1109 4.4 18:29:16 10° NW 18:33:06 39° NNE 18:36:55 10° E
NOSS 3-1 (A) 4.4 18:25:29 10° NW 18:33:08 76° WSW 18:41:50 10° SSE
Cosmos 1980 3.8 18:31:05 10° SSW 18:36:47 85° WNW 18:42:30 10° NNE
CZ-2D R/B 4.1 18:33:25 10° S 18:37:10 54° W 18:40:55 10° NNW
Cosmos 1943 Rocket 3.8 18:33:33 10° N 18:37:15 18° NE 18:40:56 10° E
Cosmos 1766 3.3 18:33:19 10° S 18:37:15 62° E 18:41:12 10° NNE
STARLINK-1091 4.3 18:33:56 10° NW 18:37:48 41° NNE 18:41:39 10° E
S3M 4.1 18:32:44 10° S 18:39:02 69° E 18:45:25 10° NNE
Ariane Rocket 3.1 18:36:11 10° SSE 18:41:07 55° ENE 18:46:05 10° N
YAOGAN 1 3.7 18:37:09 10° S 18:41:19 47° W 18:45:31 10° NNW
STARLINK-1224 3.5 18:37:52 10° SW 18:41:52 65° SE 18:45:52 10° ENE
BREEZE-M DEB (TANK) 3.6 18:29:42 10° WNW 18:43:47 76° SW 18:47:14 10° SE
Cosmos 1455 Rocket 3.2 18:40:02 10° SSE 18:44:13 50° E 18:48:26 10° NNE
Cosmos 1386 Rocket 4.4 18:38:24 10° N 18:44:27 68° E 18:50:25 10° SSE
SL-08 ROCKET BODY 4.4 18:38:33 10° N 18:44:40 68° E 18:50:39 10° SSE
STARLINK-1225 3.5 18:42:33 10° SW 18:46:34 71° SE 18:50:35 10° ENE
Cosmos 1110 Rocket 4.0 18:43:01 10° NNW 18:48:17 69° ENE 18:53:28 10° SSE
STARLINK-1203 3.4 18:44:34 10° SW 18:48:29 80° SE 18:52:26 10° ENE
Cosmos 332 Rocket 4.0 18:44:35 10° NNW 18:49:30 82° WSW 18:54:25 10° SSE
SL-16 R/B 2.5 18:45:00 10° S 18:50:18 44° ESE 18:55:39 10° NE
Cosmos 2333 Rocket 4.4 18:46:05 10° WSW 18:50:56 28° NW 18:55:48 10° N
STARLINK-1072 4.0 18:47:06 10° NW 18:51:00 48° NNE 18:54:14 14° E
STARLINK-1230 3.5 18:47:10 10° SW 18:51:11 77° SE 18:55:13 10° ENE
Cosmos 1892 Rocket 3.6 18:47:34 10° N 18:52:05 83° E 18:56:34 10° S
USA 186 2.3 18:50:16 10° SSE 18:53:33 45° ENE 18:56:50 10° N
Cosmos 1626 Rocket 4.4 18:49:43 10° NNE 18:53:36 29° ENE 18:57:13 11° SE
Cosmos 1953 4.0 18:53:54 13° E 18:54:24 14° E 18:56:26 10° NE
ARGOS Delta rocket 4.0 18:49:30 10° SSE 18:54:31 72° ENE 18:59:51 10° N
STARLINK-1234 4.0 18:51:44 10° WSW 18:54:36 41° NNW 18:57:29 10° NE
STARLINK-1096 3.9 18:51:33 10° NW 18:55:28 51° NNE 18:58:31 16° ESE
STARLINK-1243 3.5 18:51:51 10° SW 18:55:53 83° SE 18:59:56 10° ENE
Cosmos 1626 2.6 18:53:03 10° N 18:56:34 40° ENE 19:00:04 10° SSE
STARLINK-1079 3.8 18:56:01 10° NW 18:59:57 55° NNE 19:02:49 17° ESE
Okean 1-7 Rocket 3.5 18:55:34 10° N 19:00:00 85° E 19:04:23 10° S
STARLINK-1236 3.5 18:56:30 10° SW 19:00:32 90° SSE 19:04:35 10° NE
SJ-11-01 4.4 18:59:42 10° S 19:04:23 81° WSW 19:09:08 10° NNW
STARLINK-1116 3.8 19:00:29 10° NW 19:04:27 59° NNE 19:07:08 19° ESE
H-2A R/B 2.0 19:00:04 10° SSE 19:05:23 76° ENE 19:10:36 10° N
Cosmos 883 Rocket 4.4 19:03:08 10° S 19:09:15 71° E 19:15:30 10° NNE
STARLINK-1269 3.6 19:05:55 10° WSW 19:09:57 78° NNW 19:14:00 10° NE
STARLINK-1118 3.6 19:08:28 10° WNW 19:10:27 29° SW 19:11:31 19° S
Cosmos 1544 Rocket 3.5 19:07:15 10° S 19:11:36 75° E 19:16:03 10° NNE
STARLINK-1094 3.6 19:09:27 10° NW 19:13:26 67° NNE 19:15:46 24° ESE
Cosmos 1745 Rocket 4.4 19:07:53 10° NNW 19:14:09 66° W 19:20:18 10° S
STARLINK-1200 3.7 19:10:37 10° WSW 19:14:39 73° NNW 19:18:42 10° NE
Cosmos 2297 3.7 19:10:22 10° NNW 19:16:02 71° ENE 19:20:56 14° SSE
USA 234 3.2 19:09:35 10° NE 19:16:07 69° SE 19:22:37 10° SW
CZ-2C R/B 4.0 19:12:08 10° NNE 19:16:45 47° E 19:21:15 10° S
STARLINK-1117 3.5 19:13:57 10° NW 19:17:58 72° NNE 19:20:07 26° ESE
STARLINK-1192 3.8 19:15:16 10° WSW 19:19:18 68° NNW 19:23:20 10° NE
Cosmos 2237 Rocket 3.5 19:15:19 10° SW 19:20:37 43° WNW 19:26:00 10° NNE
STARLINK-1078 3.5 19:18:26 10° NW 19:22:29 77° NE 19:24:26 29° ESE
STARLINK-1244 4.0 19:20:05 10° WSW 19:24:06 63° NNW 19:28:01 11° NE
STARLINK-1201 4.5 19:21:33 10° W 19:24:36 35° NNW 19:27:30 11° NE
Cosmos 1302 Rocket 4.0 19:20:34 10° NNW 19:25:51 70° ENE 19:29:43 19° SSE
STARLINK-1108 3.5 19:22:58 10° NW 19:27:00 83° NE 19:28:47 32° ESE
Cosmos 1269 Rocket 4.2 19:22:30 10° SSW 19:27:46 76° WNW 19:33:06 10° NNE
Cosmos 2278 Rocket 4.1 19:23:12 10° NW 19:27:58 28° WSW 19:32:43 10° SSW
CZ-2C R/B 3.0 19:23:59 10° NNE 19:28:46 37° E 19:32:38 15° SSE
STARLINK-1138 4.1 19:24:48 10° WSW 19:28:48 59° NNW 19:32:32 12° NE
STARLINK-1066 3.3 19:28:15 10° WNW 19:31:22 55° SW 19:32:18 37° SSE
STARLINK-1071 3.5 19:27:28 10° NW 19:31:31 89° NE 19:33:08 35° SE
STARLINK-1081 3.3 19:28:43 10° WNW 19:31:47 54° SW 19:32:41 37° SSE
STARLINK-1070 3.3 19:29:11 10° WNW 19:32:15 54° SW 19:33:06 38° SSE
STARLINK-1124 3.5 19:28:23 10° NW 19:32:32 89° SW 19:34:13 35° SE
STARLINK-1069 3.3 19:29:35 10° WNW 19:32:40 53° SW 19:33:34 37° SSE
STARLINK-1085 3.4 19:30:01 10° WNW 19:33:07 53° SW 19:34:00 37° SSE
ARGOS 3.3 19:28:06 10° S 19:33:30 75° WSW 19:38:55 10° NNW
STARLINK-1086 3.4 19:30:33 10° WNW 19:33:35 52° SW 19:34:25 38° SSE
STARLINK-1143 4.2 19:29:37 10° WSW 19:33:36 55° NNW 19:37:08 13° NE
STARLINK-1095 3.4 19:30:59 10° WNW 19:34:02 51° SW 19:34:50 38° S
STARLINK-1077 3.4 19:31:25 10° WNW 19:34:28 51° SW 19:35:16 38° S
Cosmos 2251 Rocket 4.0 19:29:50 10° SSE 19:34:40 36° ESE 19:39:34 10° NE
Meteor 1-24 Rocket 4.4 19:29:29 10° NNW 19:34:50 52° W 19:40:00 10° S
STARLINK-1075 3.4 19:31:54 10° WNW 19:34:56 50° SW 19:35:42 38° S
SL-8 R/B 4.4 19:30:36 10° WNW 19:35:14 48° N 19:38:02 22° ENE
STARLINK-1093 3.4 19:32:18 10° WNW 19:35:23 50° SW 19:36:10 38° S
STARLINK-1074 3.5 19:32:45 10° WNW 19:35:49 50° SW 19:36:36 38° S
STARLINK-1110 3.5 19:32:00 10° NW 19:36:02 85° SW 19:37:29 39° SE
STARLINK-1087 3.5 19:33:14 10° WNW 19:36:16 49° SW 19:37:00 38° S
STARLINK-1088 3.5 19:33:42 10° WNW 19:36:43 48° SW 19:37:26 39° S
STARLINK-1115 3.5 19:34:07 10° WNW 19:37:11 48° SW 19:37:55 38° S
STARLINK-1076 3.5 19:34:34 10° WNW 19:37:37 47° SW 19:38:20 38° S
STARLINK-1092 3.6 19:35:01 10° WNW 19:38:05 47° SW 19:38:47 38° S
STARLINK-1080 3.6 19:35:31 10° WNW 19:38:32 46° SW 19:39:10 39° S
SL-24 R/B 3.9 19:34:03 10° NNE 19:38:40 69° ESE 19:42:40 10° S
STARLINK-1090 3.6 19:35:57 10° WNW 19:38:58 46° SW 19:39:36 39° S
STARLINK-1089 3.6 19:36:25 10° WNW 19:39:25 45° SW 19:40:02 39° S
STARLINK-1107 3.6 19:36:52 10° WNW 19:39:52 45° SW 19:40:28 39° S
Cosmos 1470 2.7 19:36:39 10° S 19:40:30 82° W 19:44:24 10° N
STARLINK-1241 4.4 19:40:11 10° WSW 19:44:04 47° NNW 19:47:06 16° NE
Cosmos 2315 Rocket 4.1 19:38:21 10° S 19:44:38 79° W 19:51:02 10° N
SL-08 RB Rocket 3.8 19:40:53 14° S 19:44:42 75° WSW 19:49:16 10° NNW
STARLINK-1122 3.6 19:41:10 10° WNW 19:45:11 73° SW 19:46:17 45° SSE
SJ-6B 3.5 19:42:00 11° S 19:45:51 55° W 19:49:54 10° NNW
MetOp-A 4.0 19:42:29 20° SSE 19:46:16 81° ENE 19:51:39 10° NNW
Resurs 1-3 3.5 19:44:44 33° SSE 19:46:36 72° ENE 19:51:00 10° N
ISS -2.3 19:44:41 10° NW 19:47:38 27° NNE 19:48:11 26° NNE
Cosmos 1758 3.5 19:44:20 10° SSW 19:48:24 74° W 19:52:31 10° N
STARLINK-1114 4.5 19:45:42 10° NW 19:49:38 39° NNE 19:50:36 34° ENE
STARLINK-1126 3.7 19:45:48 10° WNW 19:49:49 67° SW 19:50:44 48° SSE
BREEZE-M DEB (TANK) 4.2 19:46:02 10° WNW 19:52:11 42° N 19:53:09 33° NE
CZ-2C R/B 4.0 19:47:24 10° S 19:52:17 45° W 19:56:59 10° NNW
BREEZE M DEB (TANK) 4.0 19:41:13 10° SW 19:52:36 47° SSE 19:53:49 39° ESE
IRIDIUM 104 4.2 19:48:18 10° N 19:53:33 75° E 19:56:26 27° SSE
Resurs 01 Rocket 1.6 19:53:05 48° ESE 19:53:58 60° ENE 19:58:20 10° N
STARLINK-1082 3.8 19:50:23 10° WNW 19:54:22 62° SW 19:55:08 50° S
STARLINK-1130 (DARKSAT) 4.3 19:50:40 10° NW 19:54:37 42° NNE 19:55:22 37° NE
Abrixas rocket 3.8 19:52:57 10° SW 19:54:13 22° SW 19:54:13 22° SW
Cosmos 2369 Rocket 2.5 19:50:54 10° NNW 19:56:25 48° ENE 19:57:50 40° E
STARLINK-1100 3.8 19:54:58 10° WNW 19:58:55 57° SW 19:59:31 51° S
STARLINK-1084 4.2 19:55:38 10° NW 19:59:37 44° NNE 20:00:09 41° NE
Meteor 2-15 Rocket 4.4 19:54:36 10° S 20:00:41 82° W 20:06:48 10° N
IRIDIUM 114 4.2 19:57:28 10° N 20:02:43 90° WSW 20:05:35 28° S
STARLINK-1083 3.9 19:59:34 10° WNW 20:03:31 53° SW 20:03:57 50° SSW
SPOT 3 Rocket 3.9 20:00:43 19° S 20:04:30 64° WSW 20:09:42 10° NNW
STARLINK-1098 4.1 20:00:35 10° NW 20:04:36 47° NNE 20:04:55 46° NE
Cosmos 1726 3.3 20:06:29 32° NNE 20:06:29 32° NNE 20:08:40 10° NNE
Nadezhda 1 Rocket 4.2 20:06:17 42° SE 20:07:44 49° E 20:13:50 10° NNE
STARLINK-1125 4.1 20:04:13 10° WNW 20:08:07 48° SW 20:08:23 47° SSW
Meteor 1-21 Rocket 4.1 20:03:33 10° N 20:09:10 88° W 20:11:31 36° S
Cosmos 2228 4.4 20:11:03 27° NE 20:11:03 27° NE 20:13:15 10° NNE
STARLINK-1123 4.0 20:05:35 10° NW 20:09:37 50° NNE 20:09:44 50° NNE
IRIDIUM 103 4.4 20:06:39 10° N 20:11:53 75° W 20:14:45 27° S
STARLINK-1109 4.2 20:08:33 10° WNW 20:12:25 45° SW 20:12:32 45° SW
MOS 1 Rocket 3.6 20:08:35 10° N 20:13:50 84° WNW 20:19:07 11° SSW
STARLINK-1097 4.0 20:10:32 10° NW 20:14:29 53° NNE 20:14:29 53° NNE
STARLINK-1091 4.4 20:13:16 10° WNW 20:17:02 41° SW 20:17:02 41° SW
Cosmos 1943 3.9 20:19:28 37° ENE 20:19:28 37° ENE 20:23:11 10° NE
Cosmos 292 Rocket 3.6 20:13:57 10° NNW 20:18:46 86° ENE 20:19:07 77° SE
STARLINK-1099 4.0 20:15:30 10° NW 20:19:17 55° N 20:19:17 55° N
Cosmos 1943 Rocket 2.1 20:16:09 10° NNW 20:21:43 85° WSW 20:22:52 58° SSE
Cosmos 2074 Rocket 3.9 20:18:01 10° N 20:24:20 86° W 20:26:45 40° S
STARLINK-1104 4.1 20:20:29 10° NW 20:24:04 55° N 20:24:04 55° N
STARLINK-1144 4.2 20:25:26 10° NW 20:28:50 53° NNW 20:28:50 53° NNW
Cosmos 1953 3.3 20:29:30 37° WSW 20:30:22 44° WNW 20:34:12 10° N
Meteor 2-10 4.2 20:28:33 34° SSW 20:30:58 76° W 20:36:31 10° N
SPOT 1/Viking Rocket 4.1 20:32:06 45° NE 20:32:06 45° NE 20:36:25 10° N
NOSS 3-3 (A) 3.7 20:26:15 10° SSW 20:32:02 78° ESE 20:38:33 10° NE
NOSS 3-3 (C) 3.7 20:26:22 10° SSW 20:32:08 77° ESE 20:38:39 10° NE
Spot 2 Rocket 3.4 20:33:06 76° ENE 20:33:06 76° ENE 20:38:06 10° N
STARLINK-1103 4.4 20:30:24 10° NW 20:33:37 50° NNW 20:33:37 50° NNW
SL-16 R/B 4.0 20:29:35 10° WSW 20:34:34 31° NW 20:39:34 10° N
Cosmos 2084 Rocket 3.9 20:31:31 10° NW 20:35:20 64° NW 20:35:20 64° NW
Cosmos 1610 Rocket 4.3 20:32:06 10° N 20:38:22 81° E 20:39:03 70° SE
Terra 3.6 20:49:36 22° NNE 20:49:36 22° NNE 20:51:46 10° N
Cosmos 2341 Rocket 4.2 20:48:15 10° N 20:53:51 56° NE 20:53:51 56° NE
Cosmos 1603 3.9 20:53:25 34° SW 20:55:53 66° WNW 21:01:30 10° NNE
ATLAS 2AS CENTAUR R/B 3.1 20:49:36 10° NNW 20:57:03 51° NE 20:57:41 50° ENE
USA 234 4.2 20:52:47 10° NE 20:58:56 46° NNW 21:05:06 10° W
Aureole 1 Rocket 4.3 21:07:14 74° E 21:07:14 74° E 21:13:42 10° NNE
CZ-2C R/B 4.3 21:04:31 10° N 21:08:56 29° WNW 21:13:20 10° SW
COSMOS 2455 4.0 21:06:33 10° NNW 21:11:09 31° NNE 21:11:09 31° NNE
Cosmos 1656 Rocket 4.4 21:18:20 10° NNW 21:22:37 52° NW 21:22:37 52° NW
ERS-1 Rocket 4.2 21:28:47 38° NNW 21:28:47 38° NNW 21:31:54 10° NNW
Resurs 01 Rocket 4.3 21:30:38 14° W 21:30:51 14° W 21:33:04 10° WNW
Cosmos 2369 Rocket 3.9 21:35:29 10° NW 21:39:39 26° W 21:39:39 26° W
NOSS 3-4 (A) 4.5 22:08:22 10° NW 22:13:24 49° WNW 22:13:24 49° WNW
NOSS 3-4 (C) 4.5 22:08:27 10° NW 22:13:29 50° WNW 22:13:29 50° WNW
ATLAS 2AS CENTAUR R/B 4.2 22:41:02 10° NW 22:45:07 30° WNW 22:45:07 30° WNW
